Change the Weather History Date:

Friday, May 24, 2013

  Actual Average Record
Temperature  
Mean Temperature 78 °F 76 °F  
Max Temperature 91 °F 88 °F 97 °F (2011)
Min Temperature 65 °F 64 °F 52 °F (2001)
Cooling Degree Days 12 11  
Month to date cooling degree days 197  
Year to date cooling degree days 332  
Growing Degree Days 27 (Base 50)    
Moisture  
Dew Point 58 °F    
Average Humidity 61    
Maximum Humidity 88    
Minimum Humidity 25    
Precipitation  
Precipitation 0.00 in 0.09 in 0.41 in (1997)
Month to date precipitation T 1.60  
Year to date precipitation 14.54 18.07  
Sea Level Pressure  
Sea Level Pressure 30.05 in    
Wind  
Wind Speed 2 mph (North)    
Max Wind Speed 13 mph    
Max Gust Speed 23 mph    
Visibility 7 miles    
Events Rain    
T = Trace of Precipitation, MM = Missing Value Source: NWS Daily Summary

Daily Weather History Graph

Daily Weather History Graph

Search for Another Location

Airport or City:

Trip Planner

Search our weather history database for the weather conditions in past years. The results will help you decide how hot, cold, wet, or windy it might be!

Date:

Astronomy

May. 24, 2013 Rise Set
Actual Time 6:33 AM EDT 8:26 PM EDT
Civil Twilight 6:06 AM EDT 8:53 PM EDT
Nautical Twilight 5:33 AM EDT 9:26 PM EDT
Astronomical Twilight 4:59 AM EDT 10:01 PM EDT
Moon 8:09 PM EDT (5/24) 6:01 AM EDT (5/24)
Length of Visible Light 14h 47m
Length of Day
13h 53m
Full, 100% of the Moon is Illuminated
May 24
Full
May 25
Full
May 31
Last Quarter
Jun 8
New
Jun 16
First Quarter

Hourly Weather History & Observations

Time (EDT) Temp. Heat Index Dew Point Humidity Pressure Visibility Wind Dir Wind Speed Gust Speed Precip Events Conditions
12:53 AM 72.0 °F - 66.9 °F 84% 30.02 in 10.0 mi Calm Calm - N/A   Clear
1:53 AM 71.1 °F - 66.0 °F 84% 30.01 in 3.0 mi Calm Calm - N/A   Haze
2:27 AM 69.8 °F - 64.4 °F 83% 29.99 in 2.5 mi Calm Calm - N/A   Haze
2:44 AM 68.0 °F - 62.6 °F 83% 29.98 in 4.0 mi Calm Calm - N/A   Haze
2:53 AM 68.0 °F - 63.0 °F 84% 30.00 in 5.0 mi Calm Calm - N/A   Haze
3:01 AM 68.0 °F - 64.4 °F 88% 29.98 in 1.8 mi Calm Calm - N/A   Clear
3:10 AM 68.0 °F - 62.6 °F 83% 29.98 in 1.2 mi Calm Calm - N/A   Haze
3:26 AM 68.0 °F - 62.6 °F 83% 29.97 in 0.5 mi Calm Calm - N/A   Haze
3:39 AM 66.2 °F - 62.6 °F 88% 29.97 in 1.2 mi Calm Calm - N/A   Partly Cloudy
3:47 AM 68.0 °F - 62.6 °F 83% 29.97 in 3.0 mi Calm Calm - N/A   Haze
3:53 AM 68.0 °F - 63.0 °F 84% 29.99 in 4.0 mi Calm Calm - N/A   Haze
4:53 AM 66.0 °F - 62.1 °F 87% 30.01 in 6.0 mi Calm Calm - N/A   Clear
5:53 AM 66.0 °F - 62.1 °F 87% 30.03 in 8.0 mi Calm Calm - N/A   Clear
6:53 AM 64.9 °F - 61.0 °F 87% 30.04 in 5.0 mi Calm Calm - N/A   Clear
7:53 AM 73.9 °F - 64.0 °F 71% 30.06 in 10.0 mi Calm Calm - N/A   Clear
8:53 AM 78.1 °F - 60.1 °F 54% 30.07 in 10.0 mi North 10.4 mph - N/A   Clear
9:53 AM 82.0 °F 82.1 °F 59.0 °F 45% 30.09 in 10.0 mi North 8.1 mph 16.1 mph N/A   Partly Cloudy
10:53 AM 84.0 °F 83.5 °F 57.9 °F 41% 30.10 in 10.0 mi Variable 5.8 mph - N/A   Partly Cloudy
11:53 AM 86.0 °F 84.7 °F 55.9 °F 36% 30.11 in 10.0 mi NNW 9.2 mph 21.9 mph N/A   Clear
12:53 PM 88.0 °F 86.5 °F 55.9 °F 34% 30.09 in 10.0 mi Variable 5.8 mph 16.1 mph N/A   Clear
1:53 PM 90.0 °F 87.5 °F 53.1 °F 28% 30.09 in 10.0 mi North 8.1 mph 18.4 mph N/A   Clear
2:53 PM 90.0 °F - 52.0 °F 27% 30.09 in 10.0 mi Variable 6.9 mph - N/A   Partly Cloudy
3:53 PM 90.0 °F 87.5 °F 53.1 °F 28% 30.08 in 10.0 mi North 12.7 mph 23.0 mph N/A   Partly Cloudy
4:53 PM 90.0 °F - 50.0 °F 25% 30.08 in 10.0 mi NW 6.9 mph 20.7 mph N/A   Clear
5:53 PM 89.1 °F - 48.9 °F 25% 30.08 in 10.0 mi Variable 6.9 mph 19.6 mph N/A   Clear
6:53 PM 87.1 °F - 46.9 °F 25% 30.08 in 10.0 mi North 5.8 mph - N/A   Clear
7:53 PM 82.9 °F - 48.0 °F 29% 30.09 in 10.0 mi North 9.2 mph - 0.00 in Rain Light Rain
8:53 PM 73.9 °F - 51.1 °F 45% 30.11 in 10.0 mi Calm Calm - 0.00 in   Clear
9:53 PM 69.1 °F - 52.0 °F 54% 30.13 in 10.0 mi Calm Calm - N/A   Clear
10:53 PM 68.0 °F - 52.0 °F 56% 30.16 in 10.0 mi North 4.6 mph - N/A   Clear
11:53 PM 64.0 °F - 52.0 °F 65% 30.17 in 10.0 mi NNE 3.5 mph - N/A   Clear